Location: Newark
(39.9500°N, 8.6833°E)
Time: 14:27:38
(UTC+00:00)

NO-84 - Pass Details

Date: 23 February 2020
Orbit: 328 x 491 km, 55.0° (Epoch: 01 April)

Event Time Altitude Azimuth Distance (km) Brightness Sun altitude
Exits shadow 04:16:53 11° 355° (N) 1,592 ? -22.1°
Maximum altitude 04:18:26 14° 20° (NNE) 1,444 ? -21.8°
Drops below altitude 10° 04:20:21 10° 52° (NE) 1,633 ? -21.4°
Sets 04:23:22 0° 80° (E) 2,472 ? -20.8°
